• In Uzbekistan
  • List of Countries
  • For 7 days
  • Water Temperature
  • Satellite Maps
  • Weather Map
  • Weather Widgets
  • user-avatar
    Login

    Hourly Weather Darwin

    Today, 25 February, Saturday

    Time Temperature Precipitation Wind Pressure Humidity
    00:00 +28°C° 0.1 mm 1 mps 757 mmHg 79%
    01:00 +28°C° 1 mm 1 mps 757 mmHg 80%
    02:00 +28°C° 1 mm 1 mps 757 mmHg 81%
    03:00 +28°C° 0 mm 1 mps 757 mmHg 83%
    04:00 +28°C° 0.9 mm 1 mps 757 mmHg 83%
    05:00 +28°C° 0.9 mm 1 mps 757 mmHg 82%
    06:00 +28°C° 0.9 mm 1 mps 757 mmHg 82%
    07:00 +29°C° 0.7 mm 1 mps 757 mmHg 77%
    08:00 +31°C° 0.7 mm 1 mps 758 mmHg 71%
    09:00 +32°C° 0.7 mm 1 mps 758 mmHg 66%
    10:00 +34°C° 0.1 mm 1 mps 757 mmHg 61%
    11:00 +35°C° 0.1 mm 1 mps 757 mmHg 56%
    12:00 +37°C° 0.1 mm 1 mps 757 mmHg 51%
    13:00 +37°C° 0.3 mm 1 mps 756 mmHg 53%
    14:00 +37°C° 0.3 mm 2 mps 756 mmHg 54%
    15:00 +37°C° 0.3 mm 3 mps 755 mmHg 55%
    16:00 +35°C° 0.3 mm 3 mps 755 mmHg 61%
    17:00 +34°C° 0.3 mm 3 mps 755 mmHg 67%
    18:00 +33°C° 0.3 mm 3 mps 755 mmHg 73%
    19:00 +31°C° 0.1 mm 3 mps 756 mmHg 76%
    20:00 +30°C° 0.1 mm 3 mps 756 mmHg 79%
    21:00 +29°C° 0.1 mm 3 mps 756 mmHg 82%
    22:00 +29°C° 0.1 mm 3 mps 756 mmHg 83%
    23:00 +29°C° 0.1 mm 3 mps 756 mmHg 84%

    Tomorrow, 26 February, Sunday

    Time Temperature Precipitation Wind Pressure Humidity
    00:00 +28°C° 0.1 mm 3 mps 757 mmHg 85%
    01:00 +28°C° 0.1 mm 3 mps 756 mmHg 85%
    02:00 +28°C° 0.1 mm 3 mps 756 mmHg 84%
    03:00 +28°C° 0.1 mm 3 mps 755 mmHg 84%
    04:00 +27°C° 0.1 mm 3 mps 755 mmHg 84%
    05:00 +27°C° 0.1 mm 3 mps 756 mmHg 84%
    06:00 +27°C° 0.1 mm 3 mps 756 mmHg 85%
    07:00 +29°C° 0.2 mm 3 mps 756 mmHg 79%
    08:00 +30°C° 0.2 mm 3 mps 756 mmHg 74%
    09:00 +33°C° 0.2 mm 3 mps 756 mmHg 69%
    10:00 +35°C° 0 mm 3 mps 756 mmHg 62%
    11:00 +36°C° 0 mm 2 mps 756 mmHg 56%
    12:00 +38°C° 0 mm 2 mps 755 mmHg 49%
    13:00 +38°C° 1 mm 2 mps 755 mmHg 52%
    14:00 +37°C° 1 mm 2 mps 754 mmHg 56%
    15:00 +36°C° 1 mm 2 mps 754 mmHg 60%
    16:00 +35°C° 1.1 mm 3 mps 754 mmHg 66%
    17:00 +34°C° 1.1 mm 3 mps 754 mmHg 71%
    18:00 +33°C° 1.1 mm 3 mps 754 mmHg 77%
    19:00 +31°C° 1.2 mm 3 mps 755 mmHg 79%
    20:00 +30°C° 1.2 mm 3 mps 755 mmHg 81%
    21:00 +30°C° 1.2 mm 2 mps 756 mmHg 83%
    22:00 +29°C° 0.4 mm 2 mps 756 mmHg 83%
    23:00 +29°C° 0.4 mm 2 mps 756 mmHg 83%

    Day after tomorrow, 27 February, Monday

    Time Temperature Precipitation Wind Pressure Humidity
    00:00 +29°C° 0.4 mm 2 mps 756 mmHg 84%
    01:00 +29°C° 0 mm 2 mps 756 mmHg 85%
    02:00 +29°C° 0 mm 2 mps 755 mmHg 85%
    03:00 +28°C° 0 mm 2 mps 755 mmHg 86%
    04:00 +28°C° 0 mm 2 mps 755 mmHg 87%
    05:00 +28°C° 0 mm 2 mps 755 mmHg 87%
    06:00 +28°C° 0 mm 2 mps 756 mmHg 87%
    07:00 +29°C° 0.3 mm 3 mps 756 mmHg 83%
    08:00 +30°C° 0.3 mm 3 mps 756 mmHg 78%
    09:00 +33°C° 0.3 mm 3 mps 757 mmHg 73%
    10:00 +34°C° 0.1 mm 3 mps 757 mmHg 65%
    11:00 +36°C° 0.1 mm 3 mps 756 mmHg 56%
    12:00 +37°C° 0.1 mm 3 mps 756 mmHg 48%
    13:00 +38°C° 0.3 mm 3 mps 755 mmHg 47%
    14:00 +38°C° 0.3 mm 2 mps 755 mmHg 47%
    15:00 +38°C° 0.3 mm 2 mps 754 mmHg 46%
    16:00 +36°C° 1.2 mm 2 mps 754 mmHg 55%
    17:00 +35°C° 1.2 mm 2 mps 754 mmHg 65%
    18:00 +32°C° 1.2 mm 2 mps 754 mmHg 74%
    19:00 +31°C° 0.9 mm 2 mps 755 mmHg 76%
    20:00 +30°C° 0.9 mm 2 mps 756 mmHg 78%
    21:00 +29°C° 0.9 mm 2 mps 756 mmHg 81%
    22:00 +29°C° 0.1 mm 1 mps 756 mmHg 82%
    23:00 +28°C° 0.1 mm 1 mps 756 mmHg 82%

    28 February, Tuesday

    Time Temperature Precipitation Wind Pressure Humidity
    00:00 +28°C° 0.1 mm 1 mps 756 mmHg 83%
    01:00 +28°C° 0.1 mm 1 mps 756 mmHg 84%
    02:00 +28°C° 0.1 mm 1 mps 755 mmHg 86%
    03:00 +27°C° 0.1 mm 2 mps 755 mmHg 87%
    04:00 +27°C° 0 mm 2 mps 755 mmHg 88%
    05:00 +27°C° 0 mm 2 mps 756 mmHg 89%
    06:00 +27°C° 0 mm 2 mps 756 mmHg 91%
    07:00 +28°C° 0 mm 2 mps 756 mmHg 86%
    08:00 +29°C° 0 mm 2 mps 757 mmHg 81%
    09:00 +31°C° 0 mm 3 mps 757 mmHg 76%
    10:00 +33°C° 0 mm 3 mps 757 mmHg 65%
    11:00 +35°C° 0 mm 3 mps 756 mmHg 55%
    12:00 +37°C° 0 mm 3 mps 756 mmHg 45%
    13:00 +37°C° 0 mm 3 mps 755 mmHg 43%
    14:00 +37°C° 0 mm 3 mps 755 mmHg 42%
    15:00 +38°C° 0 mm 3 mps 754 mmHg 41%
    16:00 +36°C° 0 mm 3 mps 754 mmHg 48%
    17:00 +35°C° 0 mm 3 mps 754 mmHg 55%
    18:00 +34°C° 0 mm 3 mps 754 mmHg 63%
    19:00 +33°C° 0.1 mm 3 mps 755 mmHg 67%
    20:00 +30°C° 0.1 mm 2 mps 756 mmHg 71%
    21:00 +29°C° 0.1 mm 2 mps 756 mmHg 75%
    22:00 +29°C° 0.3 mm 2 mps 756 mmHg 77%
    23:00 +28°C° 0.3 mm 2 mps 756 mmHg 79%

    1 March, Wednesday

    Time Temperature Precipitation Wind Pressure Humidity
    00:00 +28°C° 0.3 mm 2 mps 756 mmHg 81%
    01:00 +28°C° 0.2 mm 2 mps 756 mmHg 82%
    02:00 +28°C° 0.2 mm 1 mps 756 mmHg 83%
    03:00 +27°C° 0.2 mm 1 mps 755 mmHg 84%
    04:00 +27°C° 0 mm 2 mps 755 mmHg 85%
    05:00 +27°C° 0 mm 2 mps 756 mmHg 86%
    06:00 +27°C° 0 mm 2 mps 756 mmHg 88%
    07:00 +28°C° 0 mm 2 mps 756 mmHg 81%
    08:00 +30°C° 0 mm 2 mps 757 mmHg 75%
    09:00 +31°C° 0 mm 2 mps 757 mmHg 68%
    10:00 +34°C° 0 mm 3 mps 757 mmHg 60%
    11:00 +35°C° 0 mm 3 mps 756 mmHg 51%
    12:00 +37°C° 0 mm 3 mps 756 mmHg 43%
    13:00 +37°C° 0 mm 3 mps 755 mmHg 42%
    14:00 +37°C° 0 mm 3 mps 754 mmHg 40%
    15:00 +38°C° 0 mm 3 mps 754 mmHg 39%
    16:00 +36°C° 0 mm 3 mps 754 mmHg 48%
    17:00 +35°C° 0 mm 3 mps 754 mmHg 56%
    18:00 +33°C° 0 mm 3 mps 754 mmHg 64%
    19:00 +31°C° 0 mm 2 mps 755 mmHg 68%
    20:00 +30°C° 0 mm 2 mps 755 mmHg 73%
    21:00 +28°C° 0 mm 1 mps 756 mmHg 78%
    22:00 +28°C° 0.1 mm 1 mps 756 mmHg 79%
    23:00 +28°C° 0.1 mm 1 mps 756 mmHg 81%

    2 March, Thursday

    Time Temperature Precipitation Wind Pressure Humidity
    00:00 +28°C° 0.1 mm 1 mps 756 mmHg 82%
    01:00 +27°C° 0.1 mm 1 mps 755 mmHg 84%
    02:00 +27°C° 0.1 mm 1 mps 755 mmHg 85%
    03:00 +27°C° 0.1 mm 1 mps 755 mmHg 86%
    04:00 +26°C° 0 mm 1 mps 755 mmHg 87%
    05:00 +24°C° 0 mm 0 mps 755 mmHg 88%
    06:00 +24°C° 0 mm 0 mps 755 mmHg 88%
    07:00 +28°C° 0 mm 1 mps 756 mmHg 81%
    08:00 +30°C° 0 mm 1 mps 756 mmHg 74%
    09:00 +32°C° 0 mm 1 mps 756 mmHg 67%
    10:00 +34°C° 0 mm 2 mps 756 mmHg 58%
    11:00 +36°C° 0 mm 2 mps 755 mmHg 50%
    12:00 +37°C° 0 mm 2 mps 755 mmHg 41%
    13:00 +38°C° 0 mm 3 mps 754 mmHg 40%
    14:00 +38°C° 0 mm 3 mps 754 mmHg 39%
    15:00 +39°C° 0 mm 3 mps 753 mmHg 37%
    16:00 +37°C° 0.1 mm 3 mps 753 mmHg 45%
    17:00 +36°C° 0.1 mm 3 mps 753 mmHg 53%
    18:00 +34°C° 0.1 mm 3 mps 753 mmHg 61%
    19:00 +32°C° 0.1 mm 2 mps 754 mmHg 67%
    20:00 +30°C° 0.1 mm 2 mps 755 mmHg 73%
    21:00 +29°C° 0.1 mm 2 mps 755 mmHg 79%
    22:00 +29°C° 0.3 mm 1 mps 755 mmHg 81%
    23:00 +28°C° 0.3 mm 1 mps 755 mmHg 83%
    Show more